Weather History for Alicante, Spain

Change the Weather History Date:

Monday, February 17, 2014

  Actual Average Record
Temperature  
Mean Temperature 56 °F -  
Max Temperature 59 °F 63 °F 73 °F (2000)
Min Temperature 52 °F 45 °F 35 °F (2003)
Degree Days  
Heating Degree Days 10    
Growing Degree Days 6 (Base 50)    
Moisture  
Dew Point 49 °F    
Average Humidity 72    
Maximum Humidity 88    
Minimum Humidity 49    
Precipitation  
Precipitation 0.00 in - - ()
Sea Level Pressure  
Sea Level Pressure 29.95 in    
Wind  
Wind Speed 6 mph ()    
Max Wind Speed 17 mph    
Max Gust Speed -    
Visibility 6.9 miles    
Events      
Averages and records for this station are not official NWS values.
T = Trace of Precipitation, MM = Missing Value Source: Averaged Metar Reports

Daily Weather History Graph

Daily Weather History Graph

Search for Another Location

Airport:

Trip Planner

Search our weather history database for the weather conditions in past years. The results will help you decide how hot, cold, wet, or windy it might be!

Date:

Astronomy

Feb. 17, 2014 Rise Set
Actual Time 7:50 AM CET 6:42 PM CET
Civil Twilight 7:23 AM CET 7:09 PM CET
Nautical Twilight 6:52 AM CET 7:40 PM CET
Astronomical Twilight 6:21 AM CET 8:11 PM CET
Moon 9:19 PM CET (2/17) 8:45 AM CET (2/17)
Length of Visible Light 11h 46m
Length of Day
10h 52m
Waning Gibbous, 94% of the Moon is Illuminated
Feb 17
Waning Gibbous
Feb 22
Last Quarter
Mar 1
New
Mar 8
First Quarter
Mar 16
Full

Hourly Weather History & Observations

Time (CET) Temp. Dew Point Humidity Pressure Visibility Wind Dir Wind Speed Gust Speed Precip Events Conditions
12:00 AM 55 °F 42 °F 51% 30.03 in - South 3.5 mph - -  
12:00 AM 57.2 °F 44.6 °F 63% 30.01 in 6.2 mi South 3.5 mph - N/A   Scattered Clouds
12:30 AM 57.2 °F 44.6 °F 63% 30.01 in 6.2 mi Variable 2.3 mph - N/A   Scattered Clouds
1:00 AM 54 °F 42 °F 55% 30.03 in 12 mi SSW 2.3 mph - -   Overcast
1:00 AM 55.4 °F 44.6 °F 67% 30.01 in 6.2 mi Variable 1.2 mph - N/A   Scattered Clouds
1:30 AM 55.4 °F 48.2 °F 77% 30.01 in 6.2 mi Variable 2.3 mph - N/A   Scattered Clouds
2:00 AM 53 °F 46 °F 69% 30.02 in - West 2.3 mph - -  
2:00 AM 55.4 °F 48.2 °F 77% 30.01 in 6.2 mi Variable 2.3 mph - N/A   Scattered Clouds
2:30 AM 55.4 °F 48.2 °F 77% 30.01 in 6.2 mi Variable 2.3 mph - N/A   Scattered Clouds
3:00 AM 53 °F 46 °F 71% 30.01 in - SW 1.2 mph - -  
3:00 AM 55.4 °F 48.2 °F 77% 30.01 in 6.2 mi Variable 1.2 mph - N/A   Mostly Cloudy
3:30 AM 55.4 °F 50.0 °F 82% 29.98 in 6.2 mi Variable 1.2 mph - N/A   Mostly Cloudy
4:00 AM 53 °F 47 °F 74% 30.00 in 12 mi Calm Calm - -   Overcast
4:00 AM 55.4 °F 50.0 °F 82% 29.98 in 6.2 mi Calm Calm - N/A   Mostly Cloudy
4:30 AM 55.4 °F 50.0 °F 82% 29.98 in 6.2 mi Calm Calm - N/A   Mostly Cloudy
5:00 AM 53 °F 47 °F 74% 29.99 in - Calm Calm - -  
5:00 AM 55.4 °F 50.0 °F 82% 29.98 in 6.2 mi Calm Calm - N/A   Mostly Cloudy
5:30 AM 53.6 °F 50.0 °F 88% 29.98 in 6.2 mi Calm Calm - N/A   Mostly Cloudy
6:00 AM 52 °F 47 °F 79% 29.98 in - Calm Calm - -  
6:00 AM 55.4 °F 50.0 °F 82% 29.98 in 6.2 mi Calm Calm - N/A   Mostly Cloudy
6:30 AM 57.2 °F 51.8 °F 82% 29.98 in 6.2 mi Variable 1.2 mph - N/A   Mostly Cloudy
7:00 AM 54 °F 50 °F 82% 29.98 in 9 mi East 9.2 mph - -   Overcast
7:00 AM 57.2 °F 51.8 °F 82% 29.95 in 6.2 mi East 9.2 mph - N/A   Overcast
7:30 AM 57.2 °F 51.8 °F 82% 29.95 in 6.2 mi ENE 8.1 mph - N/A   Mostly Cloudy
8:00 AM 54 °F 49 °F 79% 29.98 in - East 10.4 mph - -  
8:00 AM 57.2 °F 51.8 °F 82% 29.98 in 6.2 mi East 9.2 mph - N/A   Mostly Cloudy
8:30 AM 57.2 °F 51.8 °F 82% 29.98 in 6.2 mi East 10.4 mph - N/A   Mostly Cloudy
9:00 AM 54 °F 49 °F 78% 29.99 in - ENE 13.8 mph - -  
9:00 AM 57.2 °F 51.8 °F 82% 29.98 in 6.2 mi ENE 12.7 mph - N/A   Mostly Cloudy
9:30 AM 57.2 °F 51.8 °F 82% 29.98 in 6.2 mi ENE 11.5 mph - N/A   Mostly Cloudy
10:00 AM 55 °F 48 °F 70% 29.99 in 12 mi ENE 13.8 mph - -   Mostly Cloudy
10:00 AM 57.2 °F 50.0 °F 77% 29.98 in 6.2 mi ENE 12.7 mph - N/A   Mostly Cloudy
10:30 AM 57.2 °F 50.0 °F 77% 29.98 in 6.2 mi ENE 12.7 mph - N/A   Mostly Cloudy
11:00 AM 57 °F 48 °F 64% 29.99 in - ENE 12.7 mph - -  
11:00 AM 59.0 °F 50.0 °F 72% 29.98 in 6.2 mi ENE 11.5 mph - N/A   Scattered Clouds
11:30 AM 59.0 °F 50.0 °F 72% 29.98 in 6.2 mi ENE 10.4 mph - N/A   Scattered Clouds
12:00 PM 58 °F 47 °F 58% 29.99 in - ENE 11.5 mph - -  
12:00 PM 59.0 °F 50.0 °F 72% 29.98 in 6.2 mi ENE 11.5 mph - N/A   Partly Cloudy
12:30 PM 59.0 °F 48.2 °F 67% 29.98 in 6.2 mi ENE 11.5 mph - N/A   Partly Cloudy
1:00 PM 60 °F 46 °F 49% 29.97 in 11 mi ENE 10.4 mph - -   Scattered Clouds
1:00 PM 60.8 °F 48.2 °F 63% 29.95 in 6.2 mi ENE 10.4 mph - N/A   Partly Cloudy
1:30 PM 60.8 °F 50.0 °F 68% 29.95 in 6.2 mi East 11.5 mph - N/A   Partly Cloudy
2:00 PM 57 °F 47 °F 60% 29.96 in - East 10.4 mph - -  
2:00 PM 59.0 °F 48.2 °F 67% 29.95 in 6.2 mi East 10.4 mph - N/A   Partly Cloudy
2:30 PM 59.0 °F 50.0 °F 72% 29.95 in 6.2 mi East 6.9 mph - N/A   Partly Cloudy
3:00 PM 58 °F 49 °F 62% 29.91 in - ENE 13.8 mph - -  
3:00 PM 59.0 °F 51.8 °F 77% 29.89 in 6.2 mi ENE 12.7 mph - N/A   Partly Cloudy
3:30 PM 59.0 °F 50.0 °F 72% 29.86 in 6.2 mi ENE 17.3 mph - N/A   Partly Cloudy
4:00 PM 57 °F 47 °F 61% 29.90 in 11 mi ENE 11.5 mph - -   Overcast
4:00 PM 59.0 °F 50.0 °F 72% 29.89 in - ENE 11.5 mph - N/A   Clear
4:30 PM 59.0 °F 50.0 °F 72% 29.89 in - ENE 11.5 mph - N/A   Clear
5:00 PM 57 °F 49 °F 66% 29.89 in - ENE 16.1 mph - -  
5:00 PM 59.0 °F 51.8 °F 77% 29.89 in - ENE 15.0 mph - N/A   Clear
5:30 PM 59.0 °F 51.8 °F 77% 29.86 in - ENE 17.3 mph - N/A   Clear
6:00 PM 57 °F 48 °F 64% 29.89 in - NE 12.7 mph - -  
6:00 PM 59.0 °F 50.0 °F 72% 29.89 in 6.2 mi NE 11.5 mph - N/A   Partly Cloudy
6:30 PM 59.0 °F 50.0 °F 72% 29.86 in - ENE 13.8 mph - N/A   Clear
7:00 PM 56 °F 49 °F 69% 29.89 in 11 mi ENE 11.5 mph - -   Overcast
7:00 PM 59.0 °F 51.8 °F 77% 29.89 in 6.2 mi East 10.4 mph - N/A   Partly Cloudy
7:30 PM 59.0 °F 50.0 °F 72% 29.89 in 6.2 mi ENE 11.5 mph - N/A   Partly Cloudy
8:00 PM 56 °F 47 °F 64% 29.89 in - NE 10.4 mph - -  
8:00 PM 59.0 °F 50.0 °F 72% 29.89 in 6.2 mi NE 10.4 mph - N/A   Partly Cloudy
8:30 PM 59.0 °F 48.2 °F 67% 29.89 in - NE 8.1 mph - N/A   Clear
9:00 PM 56 °F 46 °F 60% 29.89 in - NNE 6.9 mph - -  
9:00 PM 59.0 °F 48.2 °F 67% 29.89 in 6.2 mi NNE 5.8 mph - N/A   Partly Cloudy
9:30 PM 59.0 °F 50.0 °F 72% 29.89 in 6.2 mi ENE 5.8 mph - N/A   Partly Cloudy
10:00 PM 55 °F 46 °F 64% 29.91 in 9 mi NNW 2.3 mph - -   Overcast
10:00 PM 57.2 °F 48.2 °F 72% 29.89 in 6.2 mi Variable 2.3 mph - N/A   Partly Cloudy
10:30 PM 57.2 °F 48.2 °F 72% 29.89 in 6.2 mi NNW 3.5 mph - N/A   Scattered Clouds
11:00 PM 55 °F 46 °F 64% 29.89 in - NW 4.6 mph - -  
11:00 PM 57.2 °F 48.2 °F 72% 29.89 in 6.2 mi NW 3.5 mph - N/A   Partly Cloudy
11:30 PM 57.2 °F 48.2 °F 72% 29.89 in 6.2 mi Variable 2.3 mph - N/A   Partly Cloudy